User: anonymous   Login
Location: Observatoire
(46.1952°N, 5.3391°E)
Time: 15:46:09
(UTC+02:00)
Language:

AO-7 - Orbit

View from above orbital plane
View from above orbital plane
View from above satellite
View from above satellite

Ground track
Ground track

The orbit data is extracted from the following two-line orbital elements,

1 07530U 74089B   24114.96306281 -.00000035  00000-0  70838-4 0  9999
2 07530 101.9779 109.1056 0012177 186.0760 231.3499 12.53674573262249
Epoch (UTC): 23 April 2024 23:06:48
Eccentricity: 0.0012177
inclination: 101.9779°
perigee height: 1439 km
apogee height: 1458 km
right ascension of ascending node: 109.1056°
argument of perigee: 186.0760°
revolutions per day: 12.53674573
mean anomaly at epoch: 231.3499°
orbit number at epoch: 26224

The dashed part of the orbit path shows where the satellite is in the earth's shadow,  

DLR